Location: Borgo
(42.3939°N, 9.2791°E)
Time: 17:32:32
(UTC+00:00)

X-37B - Visible Passes

Search period start: 22 April 2021 00:00
Search period end: 02 May 2021 00:00
Orbit: 380 x 394 km, 45.0° (Epoch: 07 April)

Date Brightness Start Highest point End Pass type
(mag) Time Alt. Az. Time Alt. Az. Time Alt. Az.
22 Apr 1.1 02:37:13 47° NW 02:37:39 52° N 02:40:48 10° ENE visible
23 Apr 3.3 01:41:18 19° ENE 01:41:18 19° ENE 01:42:24 10° ENE visible
23 Apr 1.2 03:13:35 15° WNW 03:16:05 54° N 03:19:13 10° E visible
24 Apr 1.4 02:17:43 49° N 02:17:43 49° N 02:20:45 10° ENE visible
24 Apr 0.6 03:51:13 10° WNW 03:54:26 87° SSW 03:57:36 10° ESE visible
25 Apr 3.8 01:21:57 13° ENE 01:21:57 13° ENE 01:22:19 10° ENE visible
25 Apr 0.9 02:54:14 23° WNW 02:56:02 67° NNE 02:59:12 10° E visible
26 Apr 2.1 01:58:35 36° ENE 01:58:35 36° ENE 02:00:45 10° E visible
26 Apr 0.7 03:31:08 10° WNW 03:34:17 54° SSW 03:37:23 10° SE visible
27 Apr 0.4 02:35:27 60° WNW 02:35:57 86° SSW 02:39:08 10° ESE visible
28 Apr 3.5 01:40:16 13° E 01:40:16 13° E 01:40:44 10° E visible
28 Apr 1.4 03:12:36 21° WSW 03:14:04 32° SSW 03:16:56 10° SE visible
29 Apr 2.6 02:17:49 19° SE 02:17:49 19° SE 02:18:55 10° SE visible
29 Apr 2.8 03:51:20 10° SW 03:51:54 10° SW 03:52:28 10° SSW visible
30 Apr 3.1 02:55:53 11° S 02:55:53 11° S 02:56:05 10° SSE visible
01 May 1.8 20:04:08 10° SW 20:06:05 28° SSW 20:06:05 28° SSW visible
